| time (UTC) | temp C | wind direction | speed KPH | gust KPH | rain 1hr cm | rain 24hr cm | rain mn cm | humidity % | barometer mb |
| 20260503180059 | 21 | 150 | 1.6 | 11.3 | 0.00 | 0.00 | 0.00 | 51 | 1013.9 |
| 20260503175059 | 21 | 141 | 3.2 | 9.7 | 0.00 | 0.00 | 0.00 | 52 | 1014.0 |
| 20260503174059 | 21 | 245 | 4.8 | 9.7 | 0.00 | 0.00 | 0.00 | 50 | 1013.9 |
| 20260503173059 | 21 | 157 | 0.0 | 6.4 | 0.00 | 0.00 | 0.00 | 51 | 1014.1 |
| 20260503172100 | 20 | 103 | 3.2 | 8.0 | 0.00 | 0.00 | 0.00 | 54 | 1014.1 |
| 20260503131059 | 12 | 85 | 0.0 | 4.8 | 0.00 | 0.00 | 0.00 | 72 | 1014.4 |
| 20260503081056 | 16 | 94 | 0.0 | 3.2 | 0.00 | 0.00 | 0.00 | 62 | 1014.2 |
| 20260503072057 | 17 | 5 | 3.2 | 6.4 | 0.00 | 0.00 | 0.00 | 51 | 1014.1 |
| 20260503071026 | 17 | 97 | 4.8 | 6.4 | 0.00 | 0.00 | 0.00 | 57 | 1014.1 |
| 20260503055057 | 20 | 310 | 1.6 | 12.9 | 0.00 | 0.00 | 0.00 | 42 | 1013.6 |
| 20260503054056 | 20 | 129 | 3.2 | 11.3 | 0.00 | 0.00 | 0.00 | 45 | 1013.6 |
| 20260503053056 | 20 | 350 | 4.8 | 12.9 | 0.00 | 0.00 | 0.00 | 49 | 1013.7 |
| 20260503052057 | 20 | 87 | 11.3 | 11.3 | 0.00 | 0.00 | 0.00 | 52 | 1013.6 |
| 20260503051056 | 20 | 129 | 0.0 | 11.3 | 0.00 | 0.00 | 0.00 | 46 | 1013.5 |
| 20260503044057 | 18 | 41 | 4.8 | 9.7 | 0.00 | 0.00 | 0.00 | 60 | 1013.3 |
| 20260503043057 | 18 | 350 | 4.8 | 16.1 | 0.00 | 0.00 | 0.00 | 61 | 1013.2 |
| 20260503042056 | 18 | 13 | 3.2 | 8.0 | 0.00 | 0.00 | 0.00 | 61 | 1013.2 |
| 20260503041055 | 18 | 40 | 1.6 | 4.8 | 0.00 | 0.00 | 0.00 | 65 | 1013.1 |
| 20260503040056 | 18 | 18 | 0.0 | 4.8 | 0.00 | 0.00 | 0.00 | 63 | 1013.0 |
| 20260503035055 | 18 | 325 | 1.6 | 8.0 | 0.00 | 0.00 | 0.00 | 61 | 1012.8 |
| 20260503034055 | 18 | 288 | 3.2 | 8.0 | 0.00 | 0.00 | 0.00 | 59 | 1012.9 |
| 20260503032056 | 20 | 315 | 3.2 | 6.4 | 0.00 | 0.00 | 0.00 | 53 | 1012.8 |
| 20260503031056 | 21 | 327 | 0.0 | 3.2 | 0.00 | 0.00 | 0.00 | 54 | 1012.8 |
| 20260503030055 | 21 | 313 | 0.0 | 4.8 | 0.00 | 0.00 | 0.00 | 51 | 1012.8 |
| 20260503022055 | 22 | 262 | 3.2 | 11.3 | 0.00 | 0.00 | 0.00 | 41 | 1012.7 |
| 20260503021055 | 23 | 310 | 4.8 | 9.7 | 0.00 | 0.00 | 0.00 | 43 | 1012.8 |
| 20260503020056 | 23 | 319 | 1.6 | 9.7 | 0.00 | 0.00 | 0.00 | 43 | 1012.8 |
| 20260503015056 | 23 | 281 | 1.6 | 12.9 | 0.00 | 0.00 | 0.00 | 42 | 1012.9 |
| 20260503013055 | 23 | 306 | 1.6 | 8.0 | 0.00 | 0.00 | 0.00 | 44 | 1013.1 |
| 20260503012055 | 23 | 280 | 1.6 | 16.1 | 0.00 | 0.00 | 0.00 | 44 | 1013.2 |
| 20260503011055 | 23 | 271 | 3.2 | 12.9 | 0.00 | 0.00 | 0.00 | 43 | 1013.3 |
| 20260503010055 | 23 | 304 | 6.4 | 12.9 | 0.00 | 0.00 | 0.00 | 44 | 1013.3 |
| 20260503005055 | 23 | 265 | 3.2 | 11.3 | 0.00 | 0.00 | 0.00 | 45 | 1013.3 |
| 20260503004055 | 23 | 203 | 4.8 | 14.5 | 0.00 | 0.00 | 0.00 | 47 | 1013.3 |
| 20260503002055 | 24 | 277 | 9.7 | 12.9 | 0.00 | 0.00 | 0.00 | 46 | 1013.5 |
| 20260503001056 | 24 | 281 | 3.2 | 9.7 | 0.00 | 0.00 | 0.00 | 46 | 1013.6 |
| 20260503000055 | 24 | 305 | 1.6 | 12.9 | 0.00 | 0.00 | 0.00 | 44 | 1013.8 |
| 20260502235055 | 24 | 242 | 4.8 | 14.5 | 0.00 | 0.00 | 0.00 | 45 | 1013.9 |
| 20260502234055 | 24 | 240 | 4.8 | 12.9 | 0.00 | 0.00 | 0.00 | 43 | 1013.9 |
| 20260502233055 | 24 | 323 | 1.6 | 11.3 | 0.00 | 0.00 | 0.00 | 46 | 1014.0 |
| 20260502232055 | 24 | 233 | 4.8 | 12.9 | 0.00 | 0.00 | 0.00 | 44 | 1014.1 |
| 20260502231054 | 24 | 315 | 6.4 | 12.9 | 0.00 | 0.00 | 0.00 | 46 | 1014.2 |
| 20260502230055 | 24 | 262 | 3.2 | 12.9 | 0.00 | 0.00 | 0.00 | 44 | 1014.4 |
| 20260502225054 | 24 | 242 | 1.6 | 12.9 | 0.00 | 0.00 | 0.00 | 47 | 1014.5 |
| 20260502224054 | 23 | 211 | 11.3 | 12.9 | 0.00 | 0.00 | 0.00 | 46 | 1014.7 |
| 20260502223054 | 23 | 238 | 6.4 | 11.3 | 0.00 | 0.00 | 0.00 | 48 | 1014.8 |
| 20260502222054 | 23 | 213 | 1.6 | 11.3 | 0.00 | 0.00 | 0.00 | 47 | 1014.9 |
| 20260502220054 | 23 | 254 | 3.2 | 11.3 | 0.00 | 0.00 | 0.00 | 50 | 1015.1 |
| 20260502215055 | 22 | 248 | 8.0 | 12.9 | 0.00 | 0.00 | 0.00 | 46 | 1015.3 |
| 20260502213053 | 22 | 257 | 8.0 | 14.5 | 0.00 | 0.00 | 0.00 | 48 | 1015.6 |
| 20260502212055 | 22 | 218 | 4.8 | 12.9 | 0.00 | 0.00 | 0.00 | 51 | 1015.7 |
| 20260502211055 | 21 | 275 | 4.8 | 12.9 | 0.00 | 0.00 | 0.00 | 48 | 1015.8 |
| 20260502210054 | 22 | 246 | 4.8 | 14.5 | 0.00 | 0.00 | 0.00 | 47 | 1015.9 |
| 20260502205054 | 22 | 267 | 12.9 | 20.9 | 0.00 | 0.00 | 0.00 | 49 | 1016.0 |
| 20260502204054 | 21 | 287 | 6.4 | 19.3 | 0.00 | 0.00 | 0.00 | 50 | 1016.1 |
| 20260502203054 | 21 | 272 | 11.3 | 16.1 | 0.00 | 0.00 | 0.00 | 55 | 1016.1 |
| 20260502202053 | 22 | 240 | 14.5 | 14.5 | 0.00 | 0.00 | 0.00 | 55 | 1016.2 |
| 20260502201053 | 22 | 249 | 11.3 | 16.1 | 0.00 | 0.00 | 0.00 | 55 | 1016.2 |
| 20260502200053 | 22 | 223 | 4.8 | 12.9 | 0.00 | 0.00 | 0.00 | 55 | 1016.3 |
| 20260502194053 | 22 | 343 | 0.0 | 12.9 | 0.00 | 0.00 | 0.00 | 55 | 1016.5 |
| 20260502193053 | 21 | 298 | 4.8 | 12.9 | 0.00 | 0.00 | 0.00 | 59 | 1016.5 |
| 20260502192054 | 21 | 286 | 3.2 | 14.5 | 0.00 | 0.00 | 0.00 | 54 | 1016.5 |
| 20260502191053 | 21 | 260 | 6.4 | 11.3 | 0.00 | 0.00 | 0.00 | 55 | 1016.6 |
| 20260502190053 | 21 | 204 | 4.8 | 11.3 | 0.00 | 0.00 | 0.00 | 57 | 1016.7 |
| 20260502185054 | 21 | 234 | 6.4 | 12.9 | 0.00 | 0.00 | 0.00 | 61 | 1016.7 |
| 20260502183054 | 20 | 304 | 3.2 | 11.3 | 0.00 | 0.00 | 0.00 | 59 | 1016.7 |
| 20260502182052 | 20 | 219 | 9.7 | 9.7 | 0.00 | 0.00 | 0.00 | 60 | 1016.8 |